This demonstration page uses our WeatherBlox Daily Observations layout. Learn more.

Left ArrowRight Arrow

36.19886, -115.1175

Hourly Observations for May 29, 2021

Temp ( °F °C ) Dew Point ( °F °C ) Humidity (%) Winds ( mph kmh ) Pressure ( in mb ) Visibility ( mi km ) Precip ( " mm )
12:53 am 00:53 Clear 82 27.8 23 -5 11 11 N N/A 29.71 1006 10 16 N/A
1:53 am 01:53 Clear 77 25 26 -3.3 15 15 NW 5 7 29.71 1006 10 16 N/A
2:53 am 02:53 Clear 75 23.9 25 -3.9 15 15 NW 8 13 29.71 1006 10 16 N/A
3:53 am 03:53 Clear 73 22.8 22 -5.6 15 15 N 7 11 29.71 1006 10 16 N/A
4:53 am 04:53 Clear 73 22.8 23 -5 15 15 NW 6 9 29.72 1006 10 16 N/A
5:53 am 05:53 Sunny 70 21.1 23 -5 17 17 NW 5 7 29.74 1007 10 16 N/A
6:53 am 06:53 Sunny 76 24.4 26 -3.3 16 16 NW 6 9 29.75 1008 10 16 N/A
7:53 am 07:53 Sunny 81 27.2 27 -2.8 14 14 N N/A 29.76 1008 10 16 N/A
8:53 am 08:53 Sunny 84 28.9 26 -3.3 12 12 ENE 8 13 29.77 1008 10 16 N/A
9:53 am 09:53 Sunny 85 29.4 26 -3.3 12 12 SE 7 11 29.77 1008 10 16 N/A
10:53 am 10:53 Sunny 85 29.4 26 -3.3 12 12 N N/A 29.77 1008 10 16 N/A
11:53 am 11:53 Sunny 87 30.6 26 -3.3 11 11 ESE 6 9 29.76 1008 10 16 N/A
12:53 pm 12:53 Sunny 89 31.7 26 -3.3 10 10 N N/A 29.75 1008 10 16 N/A
1:53 pm 13:53 Sunny 91 32.8 25 -3.9 9 9 SSE 8 13 29.74 1007 10 16 N/A
2:53 pm 14:53 Sunny 93 33.9 23 -5 8 8 VRB 5 7 29.71 1006 10 16 N/A
3:53 pm 15:53 Sunny 93 33.9 22 -5.6 7 7 S 5 7 29.69 1005 10 16 N/A
4:53 pm 16:53 Sunny 93 33.9 21 -6.1 7 7 SSE 5 7 29.67 1005 10 16 N/A
5:53 pm 17:53 Sunny 93 33.9 21 -6.1 7 7 N N/A 29.67 1005 10 16 N/A
6:53 pm 18:53 Sunny 92 33.3 21 -6.1 7 7 E 3 6 29.66 1004 10 16 N/A
7:53 pm 19:53 Clear 90 32.2 20 -6.7 8 8 E 7 11 29.67 1005 10 16 N/A
8:53 pm 20:53 Clear 87 30.6 22 -5.6 9 9 ESE 5 7 29.68 1005 10 16 N/A
9:53 pm 21:53 Clear 84 28.9 25 -3.9 11 11 NW 3 6 29.70 1006 10 16 N/A
10:53 pm 22:53 Clear 80 26.7 30 -1.1 16 16 WNW 6 9 29.71 1006 10 16 N/A
11:53 pm 23:53 Clear 78 25.6 27 -2.8 15 15 NNW 8 13 29.71 1006 10 16 N/A

Powered by AerisWeather